Weather in Kozluk

Turkey     38°11′33″N   41°29′23″E
temp.,
°C
wind,
m/s
gust,
m/s
humid.,
%
clouds,
%
prec.,
mm/h
press.,
hPa
HPBL,
m
16 june, wed
wed1600:00+18ene11190 0.0 100611
03:00+19nne33190 0.0 100712
06:00+21ne22230 0.0 100611
09:00+27ssw21160 0.0 1006514
12:00+30ssw45140 0.0 10061460
15:00+32sw46110 0.0 10042449
18:00+29sw78130 0.0 10051112
21:00+19wnw11290 0.0 100811
17 june, thu
thu1700:00+16sw11410 0.0 101011
03:00+14ene22530 0.0 101011
06:00+17nne22450 0.0 101014
09:00+23sw22280 0.0 1009908
12:00+28sw42170 0.0 10081652
15:00+30sw43130 0.0 10072029
18:00+29sw44150 0.0 10071916
21:00+20nne22280 0.0 100911
18 june, fri
fri1800:00+20ne33270 0.0 100916
03:00+19nne43260 0.0 100926
06:00+19nne43320 0.0 100944
09:00+28ssw12210 0.0 1007956
12:00+33ssw33140 0.0 10062070
15:00+34sw54120 0.0 10042550
18:00+33sw44110 0.0 1004718
21:00+23nne22150 0.0 100611
19 june, sat
sat1900:00+24nne44150 0.0 100621
03:00+23ne43170 0.0 100519
06:00+23nne43230 0.0 100635
09:00+31sse12140 0.0 1005719
12:00+35ssw47110 0.0 10041872
15:00+35ssw3790 0.0 10042716
18:00+34sse5680 0.0 10041008
21:00+24ne11170 0.0 100611
20 june, sun
sun2000:00+22nne11210 0.0 100711
03:00+22ne22210 0.0 100811
06:00+23ne22230 0.0 100913
09:00+30s22150 0.0 1008718
12:00+34s45110 0.0 10082124
15:00+35s3590 0.0 10062832
18:00+33sw6690 0.0 10071385
21:00+22nne11170 0.0 100911